Location: Roanoke
(37.2710°N, 79.9420°W)
Time: 14:54:27
(UTC-05:00)

Cosmos 1441 Rocket - Visible Passes

Search period start: 01 March 2017 00:00
Search period end: 11 March 2017 00:00
Orbit: 499 x 544 km, 81.1° (Epoch: 28 February)

Date Brightness Start Highest point End Pass type
(mag) Time Alt. Az. Time Alt. Az. Time Alt. Az.
01 Mar 4.8 19:11:41 10° NNE 19:14:09 18° ENE 19:14:09 18° ENE visible
01 Mar 5.5 20:47:01 10° NNW 20:49:21 24° WNW 20:49:21 24° WNW visible
02 Mar 4.9 18:58:42 10° NNE 19:01:10 16° ENE 19:02:22 14° E visible
02 Mar 5.0 20:33:40 10° NNW 20:37:14 31° W 20:37:35 31° WSW visible
03 Mar 5.0 18:45:45 10° NE 18:47:54 14° ENE 18:50:02 10° ESE visible
03 Mar 4.8 20:20:20 10° NNW 20:24:01 36° W 20:26:11 20° SSW visible
04 Mar 4.6 20:07:01 10° NNW 20:10:48 41° W 20:14:33 10° SSW visible
05 Mar 4.3 19:53:43 10° NNW 19:57:35 47° W 20:01:25 10° S visible
06 Mar 4.0 19:40:26 10° NNW 19:44:22 55° W 19:48:15 10° S visible
07 Mar 3.8 19:27:09 10° NNW 19:31:08 64° W 19:35:04 10° S visible
08 Mar 3.5 19:13:54 10° NNW 19:17:54 74° W 19:21:53 10° S visible
09 Mar 3.3 19:00:39 10° N 19:04:40 85° W 19:08:39 10° S visible
10 Mar 3.3 18:47:25 10° N 18:51:27 83° E 18:55:25 10° S visible
